TimeCDT,TemperatureF,Dew PointF,Humidity,Sea Level PressureIn,VisibilityMPH,Wind Direction,Wind SpeedMPH,Gust SpeedMPH,PrecipitationIn,Events,Conditions,WindDirDegrees,DateUTC
12:12 AM,42.8,41.0,93,30.23,7.0,Calm,Calm,-,0.01,Rain,Light Rain,0,2013-10-15 05:12:00
12:32 AM,42.8,41.0,93,30.22,4.0,Calm,Calm,-,0.03,Rain,Rain,0,2013-10-15 05:32:00
12:52 AM,41.0,39.2,93,30.22,4.0,Calm,Calm,-,0.05,Rain,Rain,0,2013-10-15 05:52:00
1:12 AM,41.0,39.2,93,30.21,7.0,Calm,Calm,-,0.01,Rain,Rain,0,2013-10-15 06:12:00
1:33 AM,41.0,39.2,93,30.19,4.0,Calm,Calm,-,0.03,Rain,Light Rain,0,2013-10-15 06:33:00
1:52 AM,41.0,39.2,93,30.18,7.0,NNE,3.5,-,0.04,Rain,Light Rain,30,2013-10-15 06:52:00
2:12 AM,41.0,39.2,93,30.17,10.0,North,3.5,-,N/A,Rain,Light Rain,360,2013-10-15 07:12:00
2:32 AM,41.0,39.2,93,30.19,7.0,Calm,Calm,-,N/A,,Light Drizzle,0,2013-10-15 07:32:00
2:52 AM,41.0,39.2,93,30.18,10.0,ENE,3.5,-,N/A,Rain,Light Rain,60,2013-10-15 07:52:00
3:12 AM,41.0,39.2,93,30.17,7.0,Calm,Calm,-,N/A,Rain,Light Rain,0,2013-10-15 08:12:00
3:33 AM,41.0,39.2,93,30.16,10.0,NNE,4.6,-,0.01,Rain,Light Rain,30,2013-10-15 08:33:00
3:52 AM,41.0,39.2,93,30.15,7.0,NNE,4.6,-,0.01,Rain,Light Rain,30,2013-10-15 08:52:00
4:12 AM,41.0,39.2,93,30.13,10.0,NNE,4.6,-,0.01,Rain,Rain,30,2013-10-15 09:12:00
4:32 AM,41.0,39.2,93,30.13,10.0,NNE,4.6,-,0.01,Rain,Light Rain,20,2013-10-15 09:32:00
4:52 AM,39.2,39.2,100,30.12,10.0,NNE,4.6,-,0.01,,Overcast,30,2013-10-15 09:52:00
5:13 AM,39.2,39.2,100,30.11,7.0,NNE,3.5,-,N/A,Rain,Light Rain,30,2013-10-15 10:13:00
5:32 AM,41.0,39.2,93,30.10,10.0,NNE,3.5,-,0.01,Rain,Rain,30,2013-10-15 10:32:00
5:52 AM,41.0,39.2,93,30.08,7.0,Calm,Calm,-,0.01,Rain,Light Rain,0,2013-10-15 10:52:00
6:12 AM,41.0,39.2,93,30.08,10.0,NE,4.6,-,N/A,,Light Drizzle,40,2013-10-15 11:12:00
6:32 AM,41.0,39.2,93,30.08,10.0,North,4.6,-,N/A,,Overcast,10,2013-10-15 11:32:00
6:52 AM,41.0,39.2,93,30.07,10.0,NNE,4.6,-,N/A,,Overcast,20,2013-10-15 11:52:00
7:12 AM,41.0,39.2,93,30.06,10.0,NE,5.8,-,N/A,,Drizzle,40,2013-10-15 12:12:00
7:32 AM,39.2,39.2,100,30.05,7.0,NE,3.5,-,0.01,Rain,Light Rain,40,2013-10-15 12:32:00
7:52 AM,39.2,39.2,100,30.03,10.0,NE,3.5,-,0.01,,Drizzle,40,2013-10-15 12:52:00
8:12 AM,41.0,39.2,93,30.03,10.0,NE,3.5,-,N/A,,Overcast,50,2013-10-15 13:12:00
8:32 AM,41.0,39.2,93,30.03,10.0,NE,3.5,-,N/A,Rain,Light Rain,40,2013-10-15 13:32:00
8:52 AM,41.0,41.0,100,30.03,10.0,NE,3.5,-,N/A,Rain,Rain,50,2013-10-15 13:52:00
9:12 AM,41.0,41.0,100,30.02,7.0,NE,4.6,-,0.01,Rain,Light Rain,40,2013-10-15 14:12:00
9:32 AM,41.0,41.0,100,30.02,7.0,Calm,Calm,-,0.02,Rain,Rain,0,2013-10-15 14:32:00
9:52 AM,41.0,41.0,100,30.01,5.0,North,4.6,-,0.05,Rain,Rain,10,2013-10-15 14:52:00
10:12 AM,41.0,41.0,100,30.01,7.0,North,4.6,-,0.01,Rain,Light Rain,10,2013-10-15 15:12:00
10:32 AM,41.0,41.0,100,30.00,10.0,NNE,4.6,-,0.01,Rain,Light Rain,30,2013-10-15 15:32:00
10:52 AM,41.0,41.0,100,30.00,10.0,NNE,6.9,-,0.02,Rain,Light Rain,30,2013-10-15 15:52:00
11:12 AM,41.0,41.0,100,30.00,10.0,NNE,5.8,-,0.01,Rain,Light Rain,20,2013-10-15 16:12:00
11:32 AM,42.8,41.0,93,30.00,7.0,NNE,5.8,-,0.02,Rain,Light Rain,20,2013-10-15 16:32:00
11:53 AM,42.8,41.0,93,29.99,10.0,NNE,4.6,-,0.03,Rain,Light Rain,30,2013-10-15 16:53:00
12:12 PM,41.0,41.0,100,29.99,7.0,NNE,6.9,-,0.02,Rain,Rain,30,2013-10-15 17:12:00
12:32 PM,41.0,41.0,100,29.98,10.0,NNE,5.8,-,0.04,Rain,Light Rain,20,2013-10-15 17:32:00
12:52 PM,41.0,41.0,100,29.97,10.0,North,6.9,-,0.05,Rain,Light Rain,10,2013-10-15 17:52:00
1:12 PM,41.0,41.0,100,29.97,10.0,NNE,3.5,-,N/A,,Drizzle,20,2013-10-15 18:12:00
1:32 PM,41.0,41.0,100,29.96,10.0,NNE,9.2,-,N/A,,Light Drizzle,20,2013-10-15 18:32:00
1:52 PM,41.0,41.0,100,29.95,10.0,North,5.8,-,N/A,Rain,Light Rain,360,2013-10-15 18:52:00
2:12 PM,41.0,41.0,100,29.95,10.0,NNE,5.8,-,0.01,Rain,Rain,30,2013-10-15 19:12:00
2:32 PM,41.0,41.0,100,29.95,10.0,North,4.6,-,0.02,Rain,Light Rain,360,2013-10-15 19:32:00
2:52 PM,41.0,41.0,100,29.95,10.0,North,6.9,-,0.03,Rain,Light Rain,10,2013-10-15 19:52:00
3:12 PM,41.0,41.0,100,29.94,10.0,North,9.2,-,0.01,Rain,Light Rain,360,2013-10-15 20:12:00
3:32 PM,41.0,41.0,100,29.94,10.0,North,5.8,-,0.02,Rain,Light Rain,360,2013-10-15 20:32:00
3:52 PM,41.0,41.0,100,29.94,10.0,NNE,6.9,-,0.02,Rain,Light Rain,20,2013-10-15 20:52:00
4:12 PM,41.0,41.0,100,29.94,10.0,NNE,3.5,-,0.01,Rain,Light Rain,20,2013-10-15 21:12:00
4:32 PM,41.0,41.0,100,29.93,10.0,North,6.9,-,0.01,Rain,Rain,10,2013-10-15 21:32:00
4:52 PM,41.0,41.0,100,29.93,10.0,North,6.9,-,0.01,,Light Drizzle,10,2013-10-15 21:52:00
5:12 PM,41.0,41.0,100,29.93,10.0,North,5.8,-,N/A,,Overcast,10,2013-10-15 22:12:00
5:32 PM,41.0,41.0,100,29.94,10.0,NNE,5.8,-,N/A,,Overcast,20,2013-10-15 22:32:00
5:52 PM,41.0,41.0,100,29.93,10.0,NNE,4.6,-,N/A,,Overcast,20,2013-10-15 22:52:00
6:12 PM,42.8,41.0,93,29.94,10.0,Calm,Calm,-,N/A,,Overcast,0,2013-10-15 23:12:00
6:32 PM,42.8,41.0,93,29.94,10.0,North,5.8,-,N/A,,Overcast,360,2013-10-15 23:32:00
6:52 PM,42.8,41.0,93,29.94,10.0,North,4.6,-,N/A,,Overcast,10,2013-10-15 23:52:00
7:12 PM,42.8,41.0,93,29.94,10.0,NNE,4.6,-,N/A,,Overcast,30,2013-10-16 00:12:00
7:32 PM,41.0,41.0,100,29.94,10.0,North,3.5,-,N/A,,Overcast,360,2013-10-16 00:32:00
7:53 PM,41.0,41.0,100,29.94,10.0,North,3.5,-,N/A,,Overcast,10,2013-10-16 00:53:00
8:12 PM,41.0,41.0,100,29.94,10.0,NNE,4.6,-,N/A,,Overcast,20,2013-10-16 01:12:00
8:32 PM,42.8,41.0,93,29.94,10.0,North,5.8,-,N/A,,Overcast,350,2013-10-16 01:32:00
8:52 PM,42.8,41.0,93,29.94,10.0,North,8.1,-,N/A,,Overcast,350,2013-10-16 01:52:00
9:12 PM,42.8,41.0,93,29.94,10.0,North,8.1,-,N/A,,Overcast,350,2013-10-16 02:12:00
9:32 PM,41.0,41.0,100,29.95,10.0,North,5.8,-,N/A,,Overcast,360,2013-10-16 02:32:00
9:52 PM,41.0,41.0,100,29.95,10.0,North,4.6,-,N/A,,Overcast,10,2013-10-16 02:52:00
10:12 PM,41.0,41.0,100,29.94,10.0,North,4.6,-,N/A,,Overcast,360,2013-10-16 03:12:00
10:32 PM,41.0,39.2,93,29.94,10.0,North,4.6,-,N/A,,Overcast,10,2013-10-16 03:32:00
10:52 PM,41.0,39.2,93,29.94,10.0,NNE,4.6,-,N/A,,Overcast,20,2013-10-16 03:52:00
11:12 PM,41.0,39.2,93,29.94,10.0,NNE,3.5,-,N/A,,Overcast,30,2013-10-16 04:12:00
11:32 PM,41.0,39.2,93,29.94,10.0,Calm,Calm,-,N/A,,Overcast,0,2013-10-16 04:32:00
11:52 PM,41.0,39.2,93,29.93,10.0,NNE,3.5,-,N/A,,Overcast,30,2013-10-16 04:52:00